Weather Roundup
Issued by NWS Springfield, MO

Home | Current Version | Previous Version | Text Only | Print | Product List | Glossary On
Versions: 1 2 3 4 5 6 7 8 9 10 11 12 13 14 15 16 17 18 19 20 21 22 23 24 25 26 27 28 29 30 31 32 33 34 35 36 37 38 39 40 41 42 43 44 45 46 47 48 49 50
083
NZUS99 KSGF 191557
HRRSGF

HOURLY WEATHER
NATIONAL WEATHER SERVICE SPRINGFIELD MO
1000 AM CST SUN NOV 19 2017

......SGF CWA......

CITY           SKY/WX    TMP DP  RH WIND       PRES   REMARKS
SPRINGFIELD    SUNNY     39  25  57 N14       30.29R WCI  31
JOPLIN         SUNNY     42  29  59 N7        30.33S
WEST PLAINS    SUNNY     42  19  39 N12G21    30.27R
ROLLA          SUNNY     34  20  56 NW13      30.26R WCI  25
BRANSON        SUNNY     41  21  45 NW10G16   30.31R

......SURROUNDING SGF CWA......

CITY           SKY/WX    TMP DP  RH WIND       PRES   REMARKS
CHANUTE        SUNNY     43  31  62 CALM      30.33S
PARSONS        SUNNY     42  32  67 CALM      30.35R
COFFEYVILLE    SUNNY     43  32  65 CALM      30.34S
EMPORIA        SUNNY     44  29  55 S8        30.29S
HARRISON AR    SUNNY     43  26  51 NW8       30.30R

......KANSAS AND MISSOURI......

CITY           SKY/WX    TMP DP  RH WIND       PRES   REMARKS
KANSAS CTY INT SUNNY     37  24  59 S5        30.28S WCI  33
SEDALIA        SUNNY     37  23  56 N9        30.31R WCI  30
ST JOSEPH      SUNNY     36  24  62 S6        30.28F WCI  31
ST LOUIS       SUNNY     35  19  52 NW13G20   30.23R WCI  26
WICHITA        MOSUNNY   42  30  62 CALM      30.30F
TOPEKA         SUNNY     41  29  62 S6        30.29S
OLATHE         SUNNY     39  21  48 CALM      30.30R

......TENNESSEE......

CITY           SKY/WX    TMP DP  RH WIND       PRES   REMARKS
MEMPHIS        NOT AVBL
NASHVILLE      MOSUNNY   43  24  47 NW13      30.16R

......ARKANSAS.......

CITY           SKY/WX    TMP DP  RH WIND       PRES   REMARKS
FAYETTEVILLE   SUNNY     43  29  57 N7        30.33R
FT SMITH       SUNNY     50  29  44 N5        30.35R
LITTLE ROCK    SUNNY     50  26  39 NW12      30.32R

......OKLAHOMA.......

CITY           SKY/WX    TMP DP  RH WIND       PRES   REMARKS
TULSA          SUNNY     48  30  49 CALM      30.36R
PONCA CITY     SUNNY     43  28  55 CALM      30.34S
MCALESTER      MOSUNNY   51  31  46 NE3       30.37R
OKLAHOMA CITY  MOSUNNY   48  30  49 SW7       30.36R

......IOWA............

CITY           SKY/WX    TMP DP  RH WIND       PRES   REMARKS
DES MOINES     NOT AVBL
QUAD CITIES    SUNNY     29  14  53 NW15G22   30.17R WCI  18

......ILLINOIS........

CITY           SKY/WX    TMP DP  RH WIND       PRES   REMARKS
QUINCY         SUNNY     31  17  56 NW14      30.22R WCI  21
CHICAGO        MOSUNNY   31  19  61 W10       30.03R WCI  22




USA.gov is the U.S. government's official web portal to all federal, state and local government web resources and services.